Time,TemperatureF,DewpointF,PressureIn,WindDirection,WindDirectionDegrees,WindSpeedMPH,WindSpeedGustMPH,Humidity,HourlyPrecipIn,Conditions,Clouds,dailyrainin,SoftwareType,DateUTC
2013-09-07 00:06:00,63.4,60.0,30.02,South,181,0.0,0.0,89,0.00,,,0.00,weatherlink.com 1.10,2013-09-07 05:06:00,
2013-09-07 00:21:00,63.0,60.0,30.02,South,181,0.0,0.0,90,0.00,,,0.00,weatherlink.com 1.10,2013-09-07 05:21:00,
2013-09-07 00:36:00,62.9,60.0,30.01,South,181,0.0,0.0,91,0.00,,,0.00,weatherlink.com 1.10,2013-09-07 05:36:00,
2013-09-07 00:51:00,63.1,61.0,30.01,South,181,0.0,0.0,91,0.00,,,0.00,weatherlink.com 1.10,2013-09-07 05:51:00,
2013-09-07 01:06:00,63.2,61.0,30.02,South,181,0.0,0.0,92,0.00,,,0.00,weatherlink.com 1.10,2013-09-07 06:06:00,
2013-09-07 01:21:00,63.1,61.0,30.02,South,181,0.0,0.0,92,0.00,,,0.00,weatherlink.com 1.10,2013-09-07 06:21:00,
2013-09-07 01:36:00,63.1,61.0,30.02,South,180,0.0,1.0,92,0.00,,,0.00,weatherlink.com 1.10,2013-09-07 06:36:00,
2013-09-07 01:51:00,63.0,61.0,30.02,South,181,0.0,0.0,92,0.00,,,0.00,weatherlink.com 1.10,2013-09-07 06:51:00,
2013-09-07 02:06:00,62.5,60.0,30.01,South,181,0.0,0.0,92,0.00,,,0.00,weatherlink.com 1.10,2013-09-07 07:06:00,
2013-09-07 02:21:00,62.2,60.0,30.00,South,180,0.0,0.0,92,0.00,,,0.00,weatherlink.com 1.10,2013-09-07 07:21:00,
2013-09-07 02:36:00,62.2,60.0,30.00,South,181,0.0,0.0,93,0.00,,,0.00,weatherlink.com 1.10,2013-09-07 07:36:00,
2013-09-07 02:51:00,61.8,60.0,30.01,South,181,0.0,0.0,92,0.00,,,0.00,weatherlink.com 1.10,2013-09-07 07:51:00,
2013-09-07 03:06:00,61.6,60.0,30.01,South,181,0.0,0.0,93,0.00,,,0.00,weatherlink.com 1.10,2013-09-07 08:06:00,
2013-09-07 03:21:00,61.7,60.0,30.01,South,181,0.0,0.0,93,0.00,,,0.00,weatherlink.com 1.10,2013-09-07 08:21:00,
2013-09-07 03:36:00,61.9,60.0,30.01,South,181,0.0,0.0,93,0.00,,,0.00,weatherlink.com 1.10,2013-09-07 08:36:00,
2013-09-07 03:51:00,62.1,60.0,30.01,South,181,0.0,0.0,94,0.00,,,0.00,weatherlink.com 1.10,2013-09-07 08:51:00,
2013-09-07 04:06:00,62.2,60.0,30.00,South,180,0.0,0.0,93,0.00,,,0.00,weatherlink.com 1.10,2013-09-07 09:06:00,
2013-09-07 04:21:00,61.9,60.0,30.01,South,181,0.0,0.0,94,0.00,,,0.00,weatherlink.com 1.10,2013-09-07 09:21:00,
2013-09-07 04:36:00,61.5,60.0,30.01,South,180,0.0,0.0,93,0.00,,,0.00,weatherlink.com 1.10,2013-09-07 09:36:00,
2013-09-07 04:51:00,61.1,59.0,30.01,South,181,0.0,0.0,93,0.00,,,0.00,weatherlink.com 1.10,2013-09-07 09:51:00,
2013-09-07 05:06:00,60.6,59.0,30.01,South,181,0.0,0.0,93,0.00,,,0.00,weatherlink.com 1.10,2013-09-07 10:06:00,
2013-09-07 05:21:00,60.3,59.0,30.01,South,180,0.0,1.0,94,0.00,,,0.00,weatherlink.com 1.10,2013-09-07 10:21:00,
2013-09-07 05:36:00,60.4,59.0,30.00,South,181,0.0,0.0,94,0.00,,,0.00,weatherlink.com 1.10,2013-09-07 10:36:00,
2013-09-07 05:51:00,60.5,59.0,30.00,South,181,0.0,0.0,94,0.00,,,0.00,weatherlink.com 1.10,2013-09-07 10:51:00,
2013-09-07 06:07:00,60.2,59.0,30.00,South,181,0.0,0.0,94,0.00,,,0.00,weatherlink.com 1.10,2013-09-07 11:07:00,
2013-09-07 06:22:00,60.7,59.0,30.00,West,274,0.0,0.0,95,0.00,,,0.00,weatherlink.com 1.10,2013-09-07 11:22:00,
2013-09-07 06:37:00,60.6,59.0,30.01,West,267,0.0,0.0,94,0.00,,,0.00,weatherlink.com 1.10,2013-09-07 11:37:00,
2013-09-07 06:52:00,60.7,59.0,30.01,West,267,0.0,1.0,94,0.00,,,0.00,weatherlink.com 1.10,2013-09-07 11:52:00,
2013-09-07 07:07:00,61.8,60.0,30.01,West,267,0.0,1.0,95,0.00,,,0.00,weatherlink.com 1.10,2013-09-07 12:07:00,
2013-09-07 07:22:00,62.9,62.0,30.00,West,267,0.0,1.0,95,0.00,,,0.00,weatherlink.com 1.10,2013-09-07 12:22:00,
2013-09-07 07:37:00,63.7,62.0,30.00,SSW,196,1.0,3.0,95,0.00,,,0.00,weatherlink.com 1.10,2013-09-07 12:37:00,
2013-09-07 07:52:00,64.4,63.0,29.99,SSW,196,0.0,0.0,95,0.00,,,0.00,weatherlink.com 1.10,2013-09-07 12:52:00,
2013-09-07 08:07:00,65.3,64.0,29.99,SSW,208,0.0,2.0,95,0.00,,,0.00,weatherlink.com 1.10,2013-09-07 13:07:00,
2013-09-07 08:22:00,66.3,65.0,29.99,SW,214,3.0,3.0,95,0.00,,,0.00,weatherlink.com 1.10,2013-09-07 13:22:00,
2013-09-07 08:37:00,67.9,67.0,29.99,SW,214,0.0,3.0,95,0.00,,,0.00,weatherlink.com 1.10,2013-09-07 13:37:00,
2013-09-07 08:52:00,69.9,69.0,30.00,SW,226,0.0,3.0,95,0.00,,,0.00,weatherlink.com 1.10,2013-09-07 13:52:00,
2013-09-07 09:07:00,72.1,71.0,30.00,West,277,1.0,4.0,95,0.00,,,0.00,weatherlink.com 1.10,2013-09-07 14:07:00,
2013-09-07 09:22:00,75.2,69.0,30.00,WSW,254,4.0,8.0,82,0.00,,,0.00,weatherlink.com 1.10,2013-09-07 14:22:00,
2013-09-07 09:37:00,77.2,68.0,30.00,West,268,1.0,6.0,74,0.00,,,0.00,weatherlink.com 1.10,2013-09-07 14:37:00,
2013-09-07 09:52:00,79.8,67.0,30.00,West,273,2.0,8.0,65,0.00,,,0.00,weatherlink.com 1.10,2013-09-07 14:52:00,
2013-09-07 10:07:00,81.0,67.0,29.99,West,271,1.0,8.0,62,0.00,,,0.00,weatherlink.com 1.10,2013-09-07 15:07:00,
2013-09-07 10:22:00,82.1,68.0,29.99,WSW,241,2.0,9.0,62,0.00,,,0.00,weatherlink.com 1.10,2013-09-07 15:22:00,
2013-09-07 10:37:00,84.1,69.0,29.98,SW,229,1.0,5.0,60,0.00,,,0.00,weatherlink.com 1.10,2013-09-07 15:37:00,
2013-09-07 10:52:00,84.5,68.0,29.96,SW,219,3.0,9.0,57,0.00,,,0.00,weatherlink.com 1.10,2013-09-07 15:52:00,
2013-09-07 11:07:00,84.0,67.0,29.97,SW,229,2.0,7.0,56,0.00,,,0.00,weatherlink.com 1.10,2013-09-07 16:07:00,
2013-09-07 11:22:00,84.8,67.0,29.97,SW,236,2.0,8.0,55,0.00,,,0.00,weatherlink.com 1.10,2013-09-07 16:22:00,
2013-09-07 11:37:00,85.6,67.0,29.96,WNW,287,0.0,8.0,54,0.00,,,0.00,weatherlink.com 1.10,2013-09-07 16:37:00,
2013-09-07 11:53:00,86.8,69.0,29.96,SW,225,1.0,5.0,55,0.00,,,0.00,weatherlink.com 1.10,2013-09-07 16:53:00,
2013-09-07 12:08:00,86.0,66.0,29.95,WSW,248,1.0,7.0,52,0.00,,,0.00,weatherlink.com 1.10,2013-09-07 17:08:00,
2013-09-07 12:23:00,86.3,65.0,29.94,West,259,4.0,7.0,49,0.00,,,0.00,weatherlink.com 1.10,2013-09-07 17:23:00,
2013-09-07 12:38:00,87.2,66.0,29.94,WNW,288,2.0,10.0,50,0.00,,,0.00,weatherlink.com 1.10,2013-09-07 17:38:00,
2013-09-07 12:53:00,87.0,67.0,29.93,SW,232,1.0,9.0,52,0.00,,,0.00,weatherlink.com 1.10,2013-09-07 17:53:00,
2013-09-07 13:08:00,88.8,66.0,29.93,South,185,2.0,8.0,47,0.00,,,0.00,weatherlink.com 1.10,2013-09-07 18:08:00,
2013-09-07 13:23:00,89.5,66.0,29.92,SSW,196,2.0,7.0,46,0.00,,,0.00,weatherlink.com 1.10,2013-09-07 18:23:00,
2013-09-07 13:38:00,89.4,65.0,29.92,SW,223,2.0,8.0,45,0.00,,,0.00,weatherlink.com 1.10,2013-09-07 18:38:00,
2013-09-07 13:53:00,90.2,63.0,29.91,West,261,1.0,14.0,41,0.00,,,0.00,weatherlink.com 1.10,2013-09-07 18:53:00,
2013-09-07 14:08:00,90.1,65.0,29.91,WSW,254,2.0,9.0,43,0.00,,,0.00,weatherlink.com 1.10,2013-09-07 19:08:00,
2013-09-07 14:23:00,89.3,61.0,29.91,WSW,255,2.0,9.0,39,0.00,,,0.00,weatherlink.com 1.10,2013-09-07 19:23:00,
2013-09-07 14:38:00,87.7,63.0,29.91,West,275,3.0,8.0,44,0.00,,,0.00,weatherlink.com 1.10,2013-09-07 19:38:00,
2013-09-07 14:53:00,87.2,66.0,29.90,West,259,2.0,7.0,50,0.00,,,0.00,weatherlink.com 1.10,2013-09-07 19:53:00,
2013-09-07 15:08:00,87.9,65.0,29.90,WSW,252,1.0,10.0,46,0.00,,,0.00,weatherlink.com 1.10,2013-09-07 20:08:00,
2013-09-07 15:23:00,87.4,65.0,29.90,WSW,238,1.0,8.0,48,0.00,,,0.00,weatherlink.com 1.10,2013-09-07 20:23:00,
2013-09-07 15:38:00,85.4,66.0,29.90,West,279,0.0,4.0,52,0.00,,,0.00,weatherlink.com 1.10,2013-09-07 20:38:00,
2013-09-07 15:53:00,84.3,66.0,29.91,NW,311,2.0,3.0,54,0.00,,,0.00,weatherlink.com 1.10,2013-09-07 20:53:00,
2013-09-07 16:08:00,85.2,64.0,29.91,WSW,256,2.0,7.0,50,0.00,,,0.00,weatherlink.com 1.10,2013-09-07 21:08:00,
2013-09-07 16:23:00,86.8,64.0,29.91,WNW,282,1.0,6.0,47,0.00,,,0.00,weatherlink.com 1.10,2013-09-07 21:23:00,
2013-09-07 16:38:00,87.5,65.0,29.91,West,280,2.0,4.0,47,0.00,,,0.00,weatherlink.com 1.10,2013-09-07 21:38:00,
2013-09-07 16:53:00,88.3,64.0,29.90,WNW,300,1.0,9.0,44,0.00,,,0.00,weatherlink.com 1.10,2013-09-07 21:53:00,
2013-09-07 17:08:00,87.7,65.0,29.90,West,275,1.0,5.0,47,0.00,,,0.00,weatherlink.com 1.10,2013-09-07 22:08:00,
2013-09-07 17:23:00,85.9,66.0,29.91,West,265,0.0,3.0,51,0.00,,,0.00,weatherlink.com 1.10,2013-09-07 22:23:00,
2013-09-07 17:38:00,84.1,65.0,29.90,West,276,0.0,4.0,53,0.00,,,0.00,weatherlink.com 1.10,2013-09-07 22:38:00,
2013-09-07 17:53:00,82.9,66.0,29.89,West,269,1.0,1.0,57,0.00,,,0.00,weatherlink.com 1.10,2013-09-07 22:53:00,
2013-09-07 18:08:00,81.9,66.0,29.88,West,280,0.0,2.0,58,0.00,,,0.00,weatherlink.com 1.10,2013-09-07 23:08:00,
2013-09-07 18:23:00,81.2,66.0,29.88,West,280,0.0,2.0,60,0.00,,,0.00,weatherlink.com 1.10,2013-09-07 23:23:00,
2013-09-07 18:38:00,80.4,67.0,29.88,West,280,0.0,1.0,63,0.00,,,0.00,weatherlink.com 1.10,2013-09-07 23:38:00,
2013-09-07 18:53:00,79.3,67.0,29.88,West,279,0.0,2.0,66,0.00,,,0.00,weatherlink.com 1.10,2013-09-07 23:53:00,
2013-09-07 19:08:00,77.9,66.0,29.88,West,273,0.0,2.0,67,0.00,,,0.00,weatherlink.com 1.10,2013-09-08 00:08:00,
2013-09-07 19:23:00,77.0,66.0,29.88,West,273,0.0,1.0,68,0.00,,,0.00,weatherlink.com 1.10,2013-09-08 00:23:00,
2013-09-07 19:38:00,76.2,65.0,29.88,West,273,0.0,0.0,69,0.00,,,0.00,weatherlink.com 1.10,2013-09-08 00:38:00,
2013-09-07 19:53:00,75.2,65.0,29.88,West,273,0.0,0.0,71,0.00,,,0.00,weatherlink.com 1.10,2013-09-08 00:53:00,
2013-09-07 20:08:00,74.4,66.0,29.89,West,272,0.0,0.0,74,0.00,,,0.00,weatherlink.com 1.10,2013-09-08 01:08:00,
2013-09-07 20:23:00,73.6,65.0,29.89,West,273,0.0,0.0,75,0.00,,,0.00,weatherlink.com 1.10,2013-09-08 01:23:00,
2013-09-07 20:38:00,72.3,65.0,29.89,West,273,0.0,0.0,77,0.00,,,0.00,weatherlink.com 1.10,2013-09-08 01:38:00,
2013-09-07 20:53:00,71.2,64.0,29.89,West,273,0.0,0.0,79,0.00,,,0.00,weatherlink.com 1.10,2013-09-08 01:53:00,
2013-09-07 21:08:00,70.2,64.0,29.88,West,273,0.0,0.0,81,0.00,,,0.00,weatherlink.com 1.10,2013-09-08 02:08:00,
2013-09-07 21:23:00,69.4,64.0,29.89,West,273,0.0,1.0,82,0.00,,,0.00,weatherlink.com 1.10,2013-09-08 02:23:00,
2013-09-07 21:38:00,69.0,64.0,29.89,West,272,0.0,0.0,83,0.00,,,0.00,weatherlink.com 1.10,2013-09-08 02:38:00,
2013-09-07 21:53:00,69.1,64.0,29.90,West,279,0.0,1.0,84,0.00,,,0.00,weatherlink.com 1.10,2013-09-08 02:53:00,
2013-09-07 22:08:00,69.0,64.0,29.90,West,279,0.0,0.0,83,0.00,,,0.00,weatherlink.com 1.10,2013-09-08 03:08:00,
2013-09-07 22:23:00,68.3,63.0,29.91,West,279,0.0,1.0,84,0.00,,,0.00,weatherlink.com 1.10,2013-09-08 03:23:00,
2013-09-07 22:38:00,67.9,63.0,29.91,West,279,0.0,0.0,85,0.00,,,0.00,weatherlink.com 1.10,2013-09-08 03:38:00,
2013-09-07 22:53:00,67.6,63.0,29.91,West,279,0.0,0.0,86,0.00,,,0.00,weatherlink.com 1.10,2013-09-08 03:53:00,
2013-09-07 23:08:00,67.2,63.0,29.90,West,279,0.0,0.0,86,0.00,,,0.00,weatherlink.com 1.10,2013-09-08 04:08:00,
2013-09-07 23:23:00,67.0,63.0,29.91,West,279,0.0,0.0,88,0.00,,,0.00,weatherlink.com 1.10,2013-09-08 04:23:00,
2013-09-07 23:38:00,67.7,64.0,29.91,West,279,0.0,0.0,89,0.00,,,0.00,weatherlink.com 1.10,2013-09-08 04:38:00,
2013-09-07 23:54:00,68.2,65.0,29.91,West,279,0.0,0.0,89,0.00,,,0.00,weatherlink.com 1.10,2013-09-08 04:54:00,